Change the Weather History Date:

Tuesday, October 8, 2013

  Actual Average Record
Temperature  
Mean Temperature 60 °F -  
Max Temperature 74 °F 68 °F 85 °F (2010)
Min Temperature 46 °F 48 °F 26 °F (2000)
Degree Days  
Heating Degree Days 5    
Growing Degree Days 10 (Base 50)    
Moisture  
Dew Point 48 °F    
Average Humidity 68    
Maximum Humidity 94    
Minimum Humidity 38    
Precipitation  
Precipitation 0.00 in - - ()
Sea Level Pressure  
Sea Level Pressure 30.11 in    
Wind  
Wind Speed 8 mph (South)    
Max Wind Speed 16 mph    
Max Gust Speed 18 mph    
Visibility 10 miles    
Events      
Averages and records for this station are not official NWS values.
T = Trace of Precipitation, MM = Missing Value Source: NWS Daily Summary

Daily Weather History Graph

Daily Weather History Graph

Search for Another Location

Airport or City:

Trip Planner

Search our weather history database for the weather conditions in past years. The results will help you decide how hot, cold, wet, or windy it might be!

Date:

Astronomy

Oct. 08, 2013 Rise Set
Actual Time 7:16 AM CDT 6:45 PM CDT
Civil Twilight 6:50 AM CDT 7:12 PM CDT
Nautical Twilight 6:19 AM CDT 7:43 PM CDT
Astronomical Twilight 5:48 AM CDT 8:13 PM CDT
Moon 11:09 AM CDT (10/8) 9:25 PM CDT (10/8)
Length of Visible Light 12h 22m
Length of Day
11h 28m
Waxing Crescent, 16% of the Moon is Illuminated
Oct 8
Waxing Crescent
Oct 11
First Quarter
Oct 18
Full
Oct 26
Last Quarter
Nov 3
New

Hourly Weather History & Observations

Time (CDT) Temp. Dew Point Humidity Pressure Visibility Wind Dir Wind Speed Gust Speed Precip Events Conditions
12:58 AM 50.2 °F 46.2 °F 86% 30.13 in 10.0 mi South 6.9 mph - N/A   Clear
1:58 AM 49.3 °F 46.6 °F 90% 30.14 in 10.0 mi South 6.9 mph - N/A   Clear
2:58 AM 49.1 °F 46.0 °F 89% 30.14 in 10.0 mi SSW 6.9 mph - N/A   Clear
3:58 AM 48.6 °F 46.4 °F 92% 30.14 in 10.0 mi South 5.8 mph - N/A   Clear
4:58 AM 48.9 °F 46.8 °F 92% 30.14 in 10.0 mi South 5.8 mph - N/A   Clear
5:58 AM 48.2 °F 45.9 °F 92% 30.15 in 10.0 mi South 5.8 mph - N/A   Clear
6:58 AM 46.9 °F 45.3 °F 94% 30.14 in 10.0 mi South 5.8 mph - N/A   Clear
7:58 AM 48.0 °F 46.0 °F 93% 30.15 in 10.0 mi South 5.8 mph - N/A   Clear
8:58 AM 55.4 °F 50.5 °F 84% 30.15 in 10.0 mi South 6.9 mph - N/A   Clear
9:58 AM 62.4 °F 51.8 °F 68% 30.16 in 10.0 mi South 10.4 mph - N/A   Clear
10:58 AM 68.2 °F 50.9 °F 54% 30.14 in 10.0 mi South 13.8 mph - N/A   Clear
11:58 AM 71.1 °F 48.6 °F 45% 30.14 in 10.0 mi South 12.7 mph - N/A   Clear
12:58 PM 73.4 °F 47.5 °F 40% 30.12 in 10.0 mi South 13.8 mph - N/A   Clear
1:58 PM 73.9 °F 48.6 °F 41% 30.10 in 10.0 mi South 16.1 mph - N/A   Clear
2:58 PM 74.5 °F 47.3 °F 38% 30.08 in 10.0 mi South 15.0 mph 18.4 mph N/A   Clear
3:58 PM 74.8 °F 48.0 °F 39% 30.07 in 10.0 mi South 12.7 mph - N/A   Clear
4:58 PM 73.6 °F 49.3 °F 42% 30.07 in 10.0 mi South 15.0 mph - N/A   Clear
5:58 PM 71.2 °F 50.4 °F 48% 30.06 in 10.0 mi SSE 6.9 mph - N/A   Clear
6:58 PM 65.5 °F 49.8 °F 57% 30.08 in 10.0 mi SSE 5.8 mph - N/A   Clear
7:58 PM 62.6 °F 50.0 °F 63% 30.08 in 10.0 mi SE 5.8 mph - N/A   Clear
8:58 PM 61.2 °F 50.9 °F 69% 30.08 in 10.0 mi SSE 5.8 mph - N/A   Clear
9:55 PM 58.3 °F 50.9 °F 76% 30.07 in 10.0 mi SSE 5.8 mph - N/A   Clear
10:55 PM 57.7 °F 50.5 °F 77% 30.07 in 10.0 mi SSE 5.8 mph - N/A   Clear
11:55 PM 57.9 °F 49.8 °F 74% 30.07 in 10.0 mi SSE 9.2 mph - N/A   Clear